sat.trackr.live / text

‹ back to catalog

STARLINK-34545

NORAD 65105 · 2025-167AD

PAYLOAD ACTIVE UNKNOWN

§ Identity

Operator
Country
US
Launch date
2025-08-04
Launch site
AFETR
Launch vehicle
Mass (kg)
RCS (m²)

Purposes: comms

External: N2YO · Heavens-Above · Gunter

§ Orbital elements

Epoch: 2026-05-25T01:43:45.476832Z

Period
93.37 min
Inclination
53.1603°
Eccentricity
0.0000424
Mean motion
15.42169541 rev/d
Perigee alt
439.4 km
Apogee alt
440.0 km
Semi-major
6,817.8 km
B*
5.2379e-5
RAAN
29.0749°
Arg perigee
67.2336°
Mean anomaly
292.8714°
Rev number
4,521

§ Raw data

STARLINK-345451 65105U 25167AD  26145.07205413  .00001870  00000+0  52379-4 0  99932 65105  53.1603  29.0749 0000424  67.2336 292.8714 15.42169541 45218

JSON: /api/v1/satellites/65105 · /tle

For live sub-satellite position, see the globe view (requires WebGL).

§ Visibility from observer

Set your observer location to see the next 7 days of passes ≥ 10°. The values pass through the URL so the page stays shareable.

No JS? Fill the form by hand. The geolocation button needs JavaScript.